Location: LDNL
(36.4545°S, 141.6685°E)
Time: 09:31:46
(UTC+10:00)

Vanguard 1 - Pass Details

Date: 10 August 2022
Orbit: 649 x 3832 km, 34.2° (Epoch: 27 September)

Event Time Altitude Azimuth Distance (km) Brightness Sun altitude
Rises 19:37:56 0° 273° (W) 3,483 14.5 -20.9°
Reaches altitude 10° 19:40:44 10° 275° (W) 2,313 13.2 -21.5°
Maximum altitude 19:45:39 69° 357° (N) 710 9.3 -22.5°
Enters shadow 19:46:20 58° 48° (NE) 766 9.2 -22.6°
